TimeAKST,TemperatureF,Dew PointF,Humidity,Sea Level PressureIn,VisibilityMPH,Wind Direction,Wind SpeedMPH,Gust SpeedMPH,PrecipitationIn,Events,Conditions,WindDirDegrees,DateUTC
12:53 AM,41.0,37.9,89,29.35,10.0,Calm,Calm,-,0.03,Rain,Light Rain,0,2012-11-16 09:53:00
1:06 AM,39.2,37.4,93,29.34,9.0,Calm,Calm,-,0.01,Rain,Light Rain,0,2012-11-16 10:06:00
1:49 AM,39.2,35.6,87,29.31,10.0,Calm,Calm,-,0.06,Rain,Light Rain,0,2012-11-16 10:49:00
1:53 AM,39.0,36.0,89,29.31,10.0,NNE,4.6,-,0.06,Rain,Light Rain,30,2012-11-16 10:53:00
3:36 AM,37.4,35.6,93,29.28,7.0,NNE,5.8,-,0.05,Rain,Light Rain,30,2012-11-16 12:36:00
3:53 AM,37.0,35.1,93,29.28,9.0,NNE,10.4,-,0.07,Rain,Light Rain,20,2012-11-16 12:53:00
4:53 AM,37.9,36.0,93,29.28,8.0,Calm,Calm,-,0.08,Rain,Light Rain,0,2012-11-16 13:53:00
5:53 AM,39.0,37.0,93,29.27,6.0,Calm,Calm,-,0.08,Rain,Light Rain,0,2012-11-16 14:53:00
6:53 AM,37.9,36.0,93,29.29,6.0,Variable,4.6,-,0.10,Rain,Rain,0,2012-11-16 15:53:00
7:53 AM,37.9,36.0,93,29.29,9.0,Calm,Calm,-,0.04,Rain,Light Rain,0,2012-11-16 16:53:00
8:53 AM,37.9,36.0,93,29.32,10.0,NE,5.8,-,0.01,Rain,Light Rain,40,2012-11-16 17:53:00
9:40 AM,39.2,37.4,93,29.33,10.0,Calm,Calm,-,0.00,,Mostly Cloudy,0,2012-11-16 18:40:00
9:53 AM,39.0,37.0,93,29.34,10.0,Variable,3.5,-,0.00,,Overcast,0,2012-11-16 18:53:00
10:15 AM,39.2,37.4,93,29.34,10.0,SSE,4.6,-,0.00,Rain,Light Rain,160,2012-11-16 19:15:00
10:53 AM,39.9,37.9,93,29.36,10.0,Variable,3.5,-,0.01,Rain,Light Rain,0,2012-11-16 19:53:00
11:01 AM,39.2,37.4,93,29.36,9.0,Calm,Calm,-,0.01,Rain,Light Rain,0,2012-11-16 20:01:00
11:19 AM,41.0,39.2,93,29.36,10.0,Calm,Calm,-,0.01,Rain,Light Rain,0,2012-11-16 20:19:00
11:28 AM,42.8,37.4,81,29.36,10.0,SSE,3.5,-,0.01,,Overcast,150,2012-11-16 20:28:00
11:43 AM,42.8,39.2,87,29.36,10.0,SE,5.8,-,0.01,,Overcast,140,2012-11-16 20:43:00
11:53 AM,41.0,37.9,89,29.37,10.0,SSE,8.1,-,0.01,Rain,Light Rain,150,2012-11-16 20:53:00
12:08 PM,41.0,37.4,87,29.36,10.0,SSE,4.6,-,0.01,Rain,Light Rain,160,2012-11-16 21:08:00
12:53 PM,41.0,37.9,89,29.37,10.0,Calm,Calm,-,0.01,,Mostly Cloudy,0,2012-11-16 21:53:00
1:03 PM,41.0,37.4,87,29.37,10.0,Calm,Calm,-,N/A,,Mostly Cloudy,0,2012-11-16 22:03:00
1:51 PM,42.8,37.4,81,29.37,10.0,South,3.5,-,0.00,,Mostly Cloudy,190,2012-11-16 22:51:00
1:53 PM,42.1,37.9,85,29.37,10.0,Calm,Calm,-,0.00,,Mostly Cloudy,0,2012-11-16 22:53:00
2:08 PM,42.8,37.4,81,29.37,10.0,Calm,Calm,-,N/A,,Mostly Cloudy,0,2012-11-16 23:08:00
2:20 PM,42.8,39.2,87,29.37,10.0,Variable,3.5,-,N/A,,Mostly Cloudy,0,2012-11-16 23:20:00
2:53 PM,43.0,39.0,86,29.37,10.0,North,4.6,-,N/A,,Mostly Cloudy,360,2012-11-16 23:53:00
3:53 PM,41.0,37.9,89,29.37,10.0,ENE,3.5,-,N/A,,Mostly Cloudy,70,2012-11-17 00:53:00
4:53 PM,39.0,37.0,93,29.37,10.0,Calm,Calm,-,N/A,,Scattered Clouds,0,2012-11-17 01:53:00
5:53 PM,39.9,37.9,93,29.36,10.0,Variable,3.5,-,0.00,,Overcast,0,2012-11-17 02:53:00
6:53 PM,39.9,37.0,89,29.35,10.0,NNE,10.4,-,0.00,Rain,Light Rain,20,2012-11-17 03:53:00
7:53 PM,39.0,37.0,93,29.36,10.0,NNE,5.8,-,0.00,,Mostly Cloudy,30,2012-11-17 04:53:00
8:53 PM,37.9,36.0,93,29.35,10.0,NNE,6.9,-,N/A,,Scattered Clouds,30,2012-11-17 05:53:00
9:53 PM,39.0,36.0,89,29.34,10.0,NNE,6.9,-,N/A,,Scattered Clouds,30,2012-11-17 06:53:00
10:53 PM,39.0,36.0,89,29.33,10.0,Calm,Calm,-,N/A,,Clear,0,2012-11-17 07:53:00
11:53 PM,39.0,36.0,89,29.31,10.0,Calm,Calm,-,N/A,,Clear,0,2012-11-17 08:53:00